Mukilteo, WA

7:08 AM PST on January 16, 2017 (GMT -0800)
Snohomish County

Weather History for KPAE - February, 2013

Change the Weather History Date:

Thursday, February 14, 2013

  Actual Average Record
Temperature  
Mean Temperature 44 °F -  
Max Temperature 46 °F 48 °F 66 °F (1987)
Min Temperature 42 °F 35 °F 20 °F (1949)
Degree Days  
Heating Degree Days 21    
Moisture  
Dew Point 41 °F    
Average Humidity 89    
Maximum Humidity 93    
Minimum Humidity 79    
Precipitation  
Precipitation 0.08 in - - ()
Sea Level Pressure  
Sea Level Pressure 30.53 in    
Wind  
Wind Speed 5 mph (SSE)    
Max Wind Speed 12 mph    
Max Gust Speed -    
Visibility 8 miles    
Events Rain    
Averages and records for this station are not official NWS values.
T = Trace of Precipitation, MM = Missing Value Source: NWS Daily Summary

Daily Weather History Graph

Daily Weather History Graph

Search for Another Location

Airport or City:

Trip Planner

Search our weather history database for the weather conditions in past years. The results will help you decide how hot, cold, wet, or windy it might be!

Date:

Astronomy

Feb. 14, 2013 Rise Set
Actual Time 7:16 AM PST 5:30 PM PST
Civil Twilight 6:44 AM PST 6:02 PM PST
Nautical Twilight 6:08 AM PST 6:39 PM PST
Astronomical Twilight 5:32 AM PST 7:15 PM PST
Moon 8:56 AM PST (2/14) 11:07 PM PST (2/14)
Length of Visible Light 11h 18m
Length of Day
10h 14m
Waxing Crescent, 22% of the Moon is Illuminated
Feb 14
Waxing Crescent
Feb 17
First Quarter
Feb 25
Full
Mar 4
Last Quarter
Mar 11
New

Hourly Weather History & Observations

Time (PST) Temp. Windchill Dew Point Humidity Pressure Visibility Wind Dir Wind Speed Gust Speed Precip Events Conditions
12:39 AM 42.8 °F - 39.2 °F 87% 30.50 in 10.0 mi Calm Calm - N/A   Overcast
12:53 AM 43.0 °F - 39.9 °F 89% 30.51 in 10.0 mi Calm Calm - N/A   Overcast
1:37 AM 42.8 °F 41.1 °F 39.2 °F 87% 30.49 in 10.0 mi Variable 3.5 mph - N/A   Overcast
1:48 AM 42.8 °F 41.1 °F 39.2 °F 87% 30.49 in 10.0 mi Variable 3.5 mph - N/A   Overcast
1:53 AM 43.0 °F - 39.9 °F 89% 30.50 in 10.0 mi Calm Calm - N/A   Overcast
2:08 AM 42.8 °F 37.5 °F 39.2 °F 87% 30.48 in 9.0 mi SSE 9.2 mph - N/A   Overcast
2:29 AM 42.8 °F 38.0 °F 41.0 °F 93% 30.49 in 4.0 mi SSE 8.1 mph - N/A   Overcast
2:53 AM 43.0 °F 37.7 °F 41.0 °F 93% 30.51 in 6.0 mi South 9.2 mph - N/A   Overcast
3:33 AM 42.8 °F 38.0 °F 41.0 °F 93% 30.48 in 10.0 mi South 8.1 mph - N/A   Overcast
3:53 AM 43.0 °F 37.7 °F 39.9 °F 89% 30.49 in 10.0 mi South 9.2 mph - N/A   Overcast
4:53 AM 42.1 °F 35.7 °F 39.9 °F 92% 30.50 in 10.0 mi South 11.5 mph - 0.00 in Rain Light Rain
5:06 AM 42.8 °F 37.5 °F 39.2 °F 87% 30.50 in 10.0 mi South 9.2 mph - 0.00 in Rain Light Rain
5:53 AM 42.1 °F 37.1 °F 39.0 °F 89% 30.52 in 10.0 mi South 8.1 mph - 0.02 in Rain Light Rain
6:23 AM 42.8 °F 39.3 °F 39.2 °F 87% 30.50 in 10.0 mi SSE 5.8 mph - 0.01 in Rain Light Rain
6:53 AM 42.1 °F 36.6 °F 39.0 °F 89% 30.52 in 6.0 mi SSE 9.2 mph - 0.02 in Rain Light Rain
7:09 AM 42.8 °F 37.0 °F 39.2 °F 87% 30.51 in 6.0 mi SSE 10.4 mph - 0.01 in Rain Light Rain
7:53 AM 42.1 °F 37.1 °F 39.0 °F 89% 30.53 in 7.0 mi SSE 8.1 mph - 0.02 in Rain Light Rain
8:53 AM 42.1 °F 38.4 °F 39.9 °F 92% 30.55 in 3.0 mi Variable 5.8 mph - 0.01 in Rain Light Rain
9:00 AM 42.8 °F 38.0 °F 39.2 °F 87% 30.53 in 2.5 mi SSE 8.1 mph - 0.00 in Rain Light Rain
9:53 AM 42.1 °F 36.1 °F 39.9 °F 92% 30.54 in 2.5 mi SSE 10.4 mph - 0.01 in   Overcast
10:00 AM 42.8 °F 37.5 °F 39.2 °F 87% 30.53 in 8.0 mi SSE 9.2 mph - N/A   Overcast
10:10 AM 42.8 °F 37.0 °F 39.2 °F 87% 30.53 in 9.0 mi SSE 10.4 mph - N/A   Overcast
10:17 AM 42.8 °F 38.0 °F 39.2 °F 87% 30.54 in 10.0 mi SSE 8.1 mph - N/A   Overcast
10:53 AM 43.0 °F 37.7 °F 39.9 °F 89% 30.56 in 2.0 mi SSE 9.2 mph - N/A   Overcast
11:53 AM 43.0 °F 39.5 °F 39.9 °F 89% 30.56 in 2.0 mi Variable 5.8 mph - N/A   Overcast
12:00 PM 42.8 °F 40.1 °F 39.2 °F 87% 30.55 in 10.0 mi Variable 4.6 mph - N/A   Overcast
12:40 PM 44.6 °F 40.7 °F 39.2 °F 81% 30.54 in 10.0 mi South 6.9 mph - N/A   Overcast
12:53 PM 44.1 °F 40.8 °F 39.0 °F 82% 30.56 in 10.0 mi SSE 5.8 mph - N/A   Overcast
1:53 PM 46.0 °F 42.5 °F 39.9 °F 79% 30.56 in 10.0 mi South 6.9 mph - N/A   Overcast
2:53 PM 46.0 °F 43.1 °F 39.9 °F 79% 30.56 in 10.0 mi SSE 5.8 mph - 0.00 in Rain Light Rain
3:53 PM 46.0 °F 44.8 °F 41.0 °F 83% 30.56 in 10.0 mi South 3.5 mph - 0.00 in   Overcast
4:53 PM 45.0 °F - 43.0 °F 93% 30.55 in 10.0 mi Calm Calm - N/A   Overcast
5:53 PM 45.0 °F - 43.0 °F 93% 30.55 in 4.0 mi Calm Calm - 0.00 in   Overcast
6:03 PM 44.6 °F - 42.8 °F 93% 30.54 in 2.0 mi Calm Calm - N/A   Overcast
6:53 PM 45.0 °F - 43.0 °F 93% 30.57 in 2.0 mi Calm Calm - N/A   Overcast
6:55 PM 44.6 °F - 42.8 °F 93% 30.55 in 5.0 mi Calm Calm - N/A   Overcast
7:53 PM 45.0 °F - 43.0 °F 93% 30.56 in 5.0 mi Calm Calm - N/A   Overcast
8:53 PM 45.0 °F - 43.0 °F 93% 30.56 in 5.0 mi Calm Calm - N/A   Overcast
9:21 PM 44.6 °F - 42.8 °F 93% 30.55 in 7.0 mi Calm Calm - N/A   Overcast
9:53 PM 45.0 °F - 43.0 °F 93% 30.56 in 10.0 mi Calm Calm - N/A   Overcast
10:33 PM 46.4 °F - 42.8 °F 87% 30.55 in 10.0 mi Calm Calm - N/A   Overcast
10:53 PM 46.0 °F - 43.0 °F 89% 30.56 in 10.0 mi Calm Calm - N/A   Overcast
11:38 PM 44.6 °F 43.1 °F 42.8 °F 93% 30.55 in 5.0 mi NE 3.5 mph - N/A   Overcast
11:53 PM 44.1 °F - 42.1 °F 93% 30.56 in 6.0 mi Calm Calm - N/A   Overcast